Location: Carnières
(50.1682°N, 3.3474°E)
Time: 19:31:35
(UTC+00:00)

Resurs 1-4 Rocket - Pass Details

Date: 23 May 2024
Orbit: 798 x 814 km, 98.7° (Epoch: 14 June)

Event Time Altitude Azimuth Distance (km) Brightness Sun altitude
Rises 02:05:01 0° 14° (NNE) 3,319 6.8 -12.6°
Reaches altitude 10° 02:07:21 10° 13° (NNE) 2,384 5.8 -12.4°
Maximum altitude 02:12:37 80° 288° (WNW) 818 2.1 -11.9°
Enters shadow 02:17:04 15° 203° (SSW) 2,064 3.6 -11.5°
